This demonstration page uses our WeatherBlox Daily Observations layout. Learn more.

38.88101, -77.10428

Hourly Observations for June 14, 2017

Temp ( °F °C ) Dew Point ( °F °C ) Humidity (%) Winds ( mph kmh ) Pressure ( in mb ) Visibility ( mi km ) Precip ( " mm )
12:52 am 00:52 Clear 81 27.2 75 23.9 82 82 S 7 11 29.88 1012 10 16.09344 0 0
1:52 am 01:52 Clear 80 26.7 73 22.8 79 79 SSW 10 17 29.88 1012 10 16.09344 0 0
2:52 am 02:52 Clear 79 26.1 71 21.7 77 77 SW 3 6 29.88 1012 10 16.09344 0 0
3:52 am 03:52 Clear 80 26.7 68 20 67 67 N 3 6 29.88 1012 10 16.09344 0 0
4:52 am 04:52 Mostly Clear 79 26.1 67 19.4 67 67 NW 7 11 29.88 1012 10 16.09344 0 0
5:52 am 05:52 Mostly Sunny 78 25.6 68 20 71 71 NNW 10 17 29.91 1013 10 16.09344 0 0
6:52 am 06:52 Partly Cloudy 79 26.1 68 20 69 69 N 12 19 29.91 1013 10 16.09344 0 0
7:52 am 07:52 Mostly Sunny 81 27.2 68 20 65 65 NW 10 17 29.94 1014 10 16.09344 0 0
8:52 am 08:52 Mostly Sunny 83 28.3 69 20.6 63 63 N 15 24 29.94 1014 10 16.09344 0 0
9:52 am 09:52 Mostly Sunny 86 30 68 20 55 55 N 15 24 29.97 1015 10 16.09344 0 0
10:52 am 10:52 Mostly Sunny 88 31.1 68 20 52 52 N 10 17 29.97 1015 10 16.09344 0 0
11:52 am 11:52 Mostly Sunny 89 31.7 69 20.6 52 52 NE 9 15 29.94 1014 10 16.09344 0 0
12:52 pm 12:52 Mostly Cloudy 89 31.7 70 21.1 53 53 NNE 5 7 29.94 1014 10 16.09344 0 0
1:52 pm 13:52 Mostly Cloudy 89 31.7 70 21.1 53 53 NE 3 6 29.94 1014 10 16.09344 0 0
2:52 pm 14:52 Mostly Cloudy 89 31.7 71 21.7 55 55 E 6 9 29.91 1013 10 16.09344 0 0
3:52 pm 15:52 Mostly Cloudy 87 30.6 73 22.8 63 63 E 8 13 29.91 1013 10 16.09344 0 0
4:52 pm 16:52 Mostly Cloudy 88 31.1 71 21.7 57 57 E 12 19 29.91 1013 10 16.09344 0 0
5:52 pm 17:52 Mostly Cloudy 86 30 71 21.7 61 61 ESE 10 17 29.88 1012 10 16.09344 0 0
6:50 pm 18:50 Partly Cloudy with Nearby Thunderstorms 86 30 70 21 59 59 E 9 15 29.91 1013 10 16.09344 0 0
6:52 pm 18:52 Partly Cloudy with Nearby Thunderstorms 86 30 70 21.1 59 59 E 10 17 29.91 1013 10 16.09344 0 0
7:14 pm 19:14 Partly Cloudy 85 29.4 71 21.7 63 63 E 10 17 29.94 1014 10 16.09344 0 0
7:52 pm 19:52 Partly Cloudy 83 28.3 69 20.6 63 63 SE 14 22 29.94 1014 10 16.09344 0 0
8:52 pm 20:52 Partly Cloudy 81 27.2 66 18.9 61 61 SE 10 17 29.94 1014 10 16.09344 0 0
9:52 pm 21:52 Mostly Clear 80 26.7 65 18.3 60 60 SE 12 19 29.97 1015 10 16.09344 0 0
10:52 pm 22:52 Mostly Clear 78 25.6 65 18.3 64 64 SSE 7 11 29.97 1015 10 16.09344 0 0
11:52 pm 23:52 Clear 76 24.4 65 18.3 69 69 SE 6 9 29.97 1015 10 16.09344 0 0

Powered by AerisWeather